Ellsworth AFB, SD

12:15 AM MDT on April 24, 2017 (GMT -0600)
Ellsworth Air Force Base

Weather History for KRCA - February, 2014

Change the Weather History Date:

Tuesday, February 11, 2014

  Actual Average Record
Temperature  
Mean Temperature 23 °F -  
Max Temperature 45 °F 38 °F 64 °F (2005)
Min Temperature 1 °F 16 °F -4 °F (2012)
Degree Days  
Heating Degree Days 42    
Moisture  
Dew Point 22 °F    
Average Humidity 75    
Maximum Humidity 93    
Minimum Humidity 45    
Precipitation  
Precipitation 0.00 in - - ()
Sea Level Pressure  
Sea Level Pressure 29.98 in    
Wind  
Wind Speed 9 mph (WNW)    
Max Wind Speed 34 mph    
Max Gust Speed 47 mph    
Visibility 10 miles    
Events Rain    
Averages and records for this station are not official NWS values.
T = Trace of Precipitation, MM = Missing Value Source: NWS Daily Summary

Daily Weather History Graph

Daily Weather History Graph

Search for Another Location

Airport or City:

Trip Planner

Search our weather history database for the weather conditions in past years. The results will help you decide how hot, cold, wet, or windy it might be!

Date:

Astronomy

Feb. 11, 2014 Rise Set
Actual Time 6:57 AM MST 5:16 PM MST
Civil Twilight 6:27 AM MST 5:46 PM MST
Nautical Twilight 5:53 AM MST 6:20 PM MST
Astronomical Twilight 5:19 AM MST 6:54 PM MST
Moon 2:36 PM MST (2/11) 4:39 AM MST (2/11)
Length of Visible Light 11h 18m
Length of Day
10h 19m
Waxing Gibbous, 91% of the Moon is Illuminated
Feb 11
Waxing Gibbous
Feb 14
Full
Feb 22
Last Quarter
Mar 1
New
Mar 8
First Quarter

Hourly Weather History & Observations

Time (MST) Temp. Windchill Dew Point Humidity Pressure Visibility Wind Dir Wind Speed Gust Speed Precip Events Conditions
12:58 AM 1.9 °F -7.6 °F -2.2 °F 83% 30.21 in 10.0 mi West 4.6 mph - N/A   Clear
1:58 AM 5.0 °F -2.1 °F 1.2 °F 84% 30.18 in 10.0 mi West 3.5 mph - N/A   Clear
2:58 AM 10.4 °F - 6.6 °F 85% 30.14 in 10.0 mi Variable 2.3 mph - N/A   Clear
3:58 AM 12.9 °F 2.6 °F 7.9 °F 80% 30.10 in 10.0 mi SW 6.9 mph - N/A   Clear
4:58 AM 12.6 °F - 7.9 °F 82% 30.09 in 10.0 mi WNW 2.3 mph - N/A   Overcast
5:58 AM 18.0 °F 11.1 °F 11.1 °F 75% 30.04 in 10.0 mi SW 4.6 mph - N/A   Overcast
6:58 AM 18.3 °F 10.2 °F 13.1 °F 80% 30.02 in 10.0 mi SW 5.8 mph - N/A   Overcast
7:58 AM 26.4 °F 19.8 °F 15.1 °F 62% 30.01 in 10.0 mi WSW 5.8 mph - N/A   Scattered Clouds
8:58 AM 32.4 °F 24.0 °F 19.9 °F 60% 29.99 in 10.0 mi West 10.4 mph - N/A   Mostly Cloudy
9:58 AM 40.3 °F 38.2 °F 21.6 °F 47% 29.96 in 10.0 mi West 3.5 mph - N/A   Overcast
9:59 AM 41.0 °F 36.4 °F 21.2 °F 45% 29.83 in 10.0 mi Variable 6.9 mph - N/A   Overcast
10:09 AM 41.0 °F 38.0 °F 23.0 °F 49% 29.83 in 10.0 mi WSW 4.6 mph - N/A   Overcast
10:58 AM 41.0 °F - 24.6 °F 52% 29.95 in 10.0 mi WSW 1.2 mph - 0.00 in   Scattered Clouds
11:58 AM 45.0 °F 43.5 °F 25.7 °F 47% 29.93 in 10.0 mi SW 3.5 mph - N/A   Scattered Clouds
12:58 PM 43.7 °F 40.3 °F 27.7 °F 53% 29.91 in 10.0 mi SSW 5.8 mph - N/A   Scattered Clouds
1:58 PM 38.8 °F 36.5 °F 28.9 °F 68% 29.89 in 10.0 mi South 3.5 mph - N/A   Mostly Cloudy
2:58 PM 37.8 °F 32.5 °F 27.9 °F 67% 29.87 in 10.0 mi South 6.9 mph - N/A   Partly Cloudy
3:58 PM 37.6 °F - 28.6 °F 70% 29.88 in 10.0 mi Calm Calm - N/A   Partly Cloudy
4:58 PM 36.1 °F 33.5 °F 28.6 °F 74% 29.88 in 10.0 mi West 3.5 mph - N/A   Overcast
5:58 PM 32.7 °F - 28.4 °F 84% 29.90 in 10.0 mi WNW 2.3 mph - N/A   Mostly Cloudy
6:23 PM 33.8 °F 19.2 °F 28.4 °F 81% 29.83 in 10.0 mi NNW 34.5 mph 47.2 mph N/A   Mostly Cloudy
6:58 PM 35.4 °F 23.0 °F 29.7 °F 80% 29.98 in 10.0 mi NNW 26.5 mph 40.3 mph 0.00 in   Overcast
7:08 PM 33.8 °F 24.3 °F 32.0 °F 93% 29.85 in 10.0 mi NW 13.8 mph - N/A Rain Light Rain
7:58 PM 35.8 °F 22.5 °F 27.7 °F 72% 29.97 in 10.0 mi NNW 31.1 mph 35.7 mph 0.00 in   Overcast
8:53 PM 32.0 °F 17.2 °F 28.4 °F 87% 29.94 in 10.0 mi NNW 32.2 mph 44.9 mph N/A   Overcast
8:58 PM 33.1 °F 18.9 °F 28.2 °F 82% 30.03 in 10.0 mi NNW 31.1 mph 43.7 mph N/A   Overcast
9:28 PM 32.0 °F 19.5 °F 26.6 °F 80% 29.96 in 10.0 mi NNW 21.9 mph 32.2 mph N/A   Overcast
9:43 PM 32.0 °F 18.4 °F 28.4 °F 87% 29.96 in 10.0 mi NNW 26.5 mph 33.4 mph N/A   Overcast
9:48 PM 32.0 °F 19.2 °F 26.6 °F 80% 29.97 in 10.0 mi NNW 23.0 mph 33.4 mph N/A   Overcast
9:58 PM 30.9 °F 17.2 °F 27.0 °F 85% 30.04 in 10.0 mi NNW 25.3 mph 31.1 mph N/A   Overcast
10:13 PM 32.0 °F 19.2 °F 26.6 °F 80% 29.99 in 10.0 mi NNW 23.0 mph 31.1 mph N/A   Overcast
10:48 PM 28.4 °F 16.2 °F 26.6 °F 93% 30.01 in 10.0 mi North 17.3 mph - N/A   Mostly Cloudy
10:53 PM 28.4 °F 15.8 °F 26.6 °F 93% 30.01 in 10.0 mi North 18.4 mph 24.2 mph N/A   Mostly Cloudy
10:58 PM 28.9 °F 17.3 °F 25.7 °F 88% 30.09 in 10.0 mi North 16.1 mph 24.2 mph N/A   Mostly Cloudy
11:08 PM 28.4 °F 16.2 °F 24.8 °F 86% 30.02 in 10.0 mi North 17.3 mph - N/A   Mostly Cloudy
11:58 PM 29.1 °F 15.7 °F 24.4 °F 83% 30.11 in 10.0 mi NNW 21.9 mph - N/A   Overcast